Simultaneous Nadir Overpasses (SNOs) Predictions

Prediction of SNOs between LANDSAT-8 and METOP-B Satellite Orbit:

Table of predicted SNOs for the next 14.0 days since TLE Epoch: 9/29/2017
Index Date (LANDSAT-8) Time (LANDSAT-8) Lat,Lon (LANDSAT-8) SZA (LANDSAT-8 ) Date (METOP-B) Time (METOP-B) Lat,Lon (METOP-B) SZA (METOP-B ) Distance(km) Time Diff (sec)
1 10/01/2017 05:40:25 -81.10, -45.52 93.37 10/01/2017 05:39:20 -81.10, -45.45 93.39 1.26 65
2 10/01/2017 06:29:50 81.13, 122.59 86.72 10/01/2017 06:29:58 81.14, 122.78 86.74 3.22 8
3 10/04/2017 01:14:41 -81.10, 21.00 92.26 10/04/2017 01:13:43 -81.11, 20.97 92.28 0.48 58
4 10/04/2017 02:04:06 81.13,-170.92 87.83 10/04/2017 02:04:21 81.14,-170.80 87.85 2.02 15
5 10/06/2017 20:48:57 -81.11, 87.47 91.15 10/06/2017 20:48:06 -81.11, 87.38 91.19 1.52 51
6 10/06/2017 21:38:22 81.13,-104.47 88.93 10/06/2017 21:38:44 81.14,-104.39 88.95 1.36 22
7 10/09/2017 16:23:12 -81.11, 153.89 90.07 10/09/2017 16:22:28 -81.10, 153.77 90.10 2.11 44
8 10/09/2017 17:12:37 81.13, -38.07 90.01 10/09/2017 17:13:06 81.13, -38.00 90.03 1.24 29
9 10/12/2017 11:57:28 -81.10,-139.73 89.00 10/12/2017 11:56:51 -81.10,-139.86 89.03 2.23 37




NCC Satellite Simultaneous Nadir Overpasses (SNOs) Prediction Service
